Location: Jaite
(41.2884°N, 81.5737°W)
Time: 07:17:04
(UTC+00:00)

BlueWalker 3 - Pass Details

Date: 16 October 2024
Orbit: 470 x 482 km, 53.2° (Epoch: 03 November)

Event Time Altitude Azimuth Distance (km) Brightness Sun altitude
Exits shadow 11:02:01 - 318° (NW) 2,173 4.7 -7.8°
Reaches altitude 10° 11:03:36 10° 329° (NNW) 1,635 4.2 -7.6°
Maximum altitude 11:06:33 22° 22° (NNE) 1,070 3.8 -7.0°
Drops below altitude 10° 11:09:30 10° 76° (ENE) 1,633 5.9 -6.5°
Sets 11:12:00 0° 92° (E) 2,511 8.1 -6.0°
